Date String (YYYY-MM-DD hh:mm:ss) UTC,Instrument flags,absolute air pressure of the measurement (hPa),sample flow rate (lpm),inlet stack bypass flow (lpm),air temperature of the measurement (°C),ambient temperature measured by the external sensor (°C),aerosol sample conditioner tube jacket temperature (°C),OPC LED temperature (°C),internal box temperature (°C),relative humidity of the measurement (%),span deviation,mass concentration of particles derived from Lorenz-Mie calculation of OPC scattering (μg/m³),mass concentration of particles derived from Lorenz-Mie calculation of OPC scattering (μg/m³),mass concentration of particles derived from Lorenz-Mie calculation of OPC scattering (μg/m³)
DateTimeUTC,F1_M11,P_M11,Q1_M11,Q2_M11,T1_M11,T2_M11,T3_M11,T4_M11,T5_M11,U1_M11,ZSPAN_M11,X0_M11,X2_M11,X1_M11
2024-01-12 23:00:00,SystemResetWarning,0814.1,4.99,000.00,018.7,017.7,000.0,027.2,020.0,7.9,0000.0,0002.75,0000.80,0000.46
2024-01-12 23:01:00,SystemResetWarning,0814.1,4.99,000.00,018.7,017.7,000.0,027.2,020.0,7.9,0000.0,0002.66,0000.80,0000.47
2024-01-12 23:02:00,SystemResetWarning,0814.1,4.99,000.00,018.7,017.6,000.0,027.2,020.0,7.9,0000.0,0002.68,0000.79,0000.46
2024-01-12 23:03:00,SystemResetWarning,0814.2,5.01,000.00,018.7,017.6,000.0,027.2,020.0,8.0,0000.0,0002.71,0000.79,0000.46
2024-01-12 23:04:00,SystemResetWarning,0814.1,5.01,000.00,018.7,017.6,000.0,027.2,020.0,8.1,0000.0,0002.72,0000.79,0000.45
2024-01-12 23:05:00,SystemResetWarning,0813.9,5.01,000.00,018.7,017.6,000.0,027.2,020.0,7.9,0000.0,0002.85,0000.84,0000.45
2024-01-12 23:06:00,SystemResetWarning,0813.9,5.00,000.00,018.7,017.7,000.0,027.2,020.0,7.9,0000.0,0002.65,0000.81,0000.45
2024-01-12 23:07:00,SystemResetWarning,0814.1,5.00,000.00,018.7,017.7,000.0,027.2,020.0,7.9,0000.0,0002.67,0000.80,0000.45
2024-01-12 23:08:00,SystemResetWarning,0814.2,5.00,000.00,018.7,017.7,000.0,027.2,020.0,8.0,0000.0,0002.70,0000.79,0000.44
2024-01-12 23:09:00,SystemResetWarning,0814.2,5.00,000.00,018.7,017.6,000.0,027.2,020.0,8.1,0000.0,0002.17,0000.79,0000.43
2024-01-12 23:10:00,SystemResetWarning,0814.2,5.00,000.00,018.7,017.6,000.0,027.2,020.0,8.1,0000.0,0001.79,0000.79,0000.42
2024-01-12 23:11:00,SystemResetWarning,0814.1,5.00,000.00,018.7,017.6,000.0,027.2,020.0,8.2,0000.0,0001.68,0000.78,0000.42
2024-01-12 23:12:00,SystemResetWarning,0814.1,4.99,000.00,018.7,017.5,000.0,027.2,020.0,8.2,0000.0,0002.02,0000.79,0000.42
2024-01-12 23:13:00,SystemResetWarning,0814.1,5.01,000.00,018.7,017.5,000.0,027.2,020.0,8.2,0000.0,0001.97,0000.79,0000.42
2024-01-12 23:14:00,SystemResetWarning,0813.9,5.01,000.00,018.7,017.5,000.0,027.2,020.0,8.2,0000.0,0002.00,0000.81,0000.41
2024-01-12 23:15:00,SystemResetWarning,0813.8,4.99,000.00,018.7,017.5,000.0,027.2,020.0,8.1,0000.0,0002.03,0000.83,0000.41
2024-01-12 23:16:00,SystemResetWarning,0813.9,4.99,000.00,018.7,017.5,000.0,027.2,020.0,8.1,0000.0,0001.88,0000.77,0000.41
2024-01-12 23:17:00,SystemResetWarning,0813.9,4.99,000.00,018.7,017.5,000.0,027.2,020.0,8.2,0000.0,0001.93,0000.80,0000.41
2024-01-12 23:18:00,SystemResetWarning,0813.9,5.00,000.00,018.7,017.4,000.0,027.2,020.0,8.2,0000.0,0002.01,0000.82,0000.39
2024-01-12 23:19:00,SystemResetWarning,0813.9,5.01,000.00,018.7,017.4,000.0,027.2,020.0,8.3,0000.0,0001.93,0000.80,0000.39
2024-01-12 23:20:00,SystemResetWarning,0813.9,5.01,000.00,018.7,017.4,000.0,027.2,020.0,8.3,0000.0,0001.95,0000.78,0000.39
2024-01-12 23:21:00,SystemResetWarning,0813.9,4.99,000.00,018.7,017.3,000.0,027.2,020.0,8.4,0000.0,0003.06,0000.75,0000.38
2024-01-12 23:22:00,SystemResetWarning,0813.6,4.99,000.00,018.7,017.3,000.0,027.2,020.0,8.4,0000.0,0003.44,0000.74,0000.38
2024-01-12 23:23:00,SystemResetWarning,0813.7,5.00,000.00,018.7,017.3,000.0,027.2,020.0,8.3,0000.0,0003.26,0000.75,0000.37
2024-01-12 23:24:00,SystemResetWarning,0813.6,5.01,000.00,018.7,017.3,000.0,027.2,020.0,8.4,0000.0,0003.27,0000.74,0000.38
2024-01-12 23:25:00,SystemResetWarning,0813.6,5.01,000.00,018.7,017.4,000.0,027.2,020.2,8.4,0000.0,0003.37,0000.74,0000.39
2024-01-12 23:26:00,SystemResetWarning,0813.6,5.00,000.00,018.8,018.1,000.0,027.2,020.6,8.5,0000.0,0004.04,0000.71,0000.38
2024-01-12 23:27:00,SystemResetWarning,0813.6,5.00,000.00,018.9,018.7,000.0,027.2,020.7,8.5,0000.0,0004.19,0000.72,0000.38
2024-01-12 23:28:00,SystemResetWarning,0813.6,5.00,000.00,019.0,018.7,000.0,027.2,020.4,8.5,0000.0,0004.22,0000.72,0000.39
2024-01-12 23:29:00,SystemResetWarning,0813.7,5.00,000.00,018.9,018.6,000.0,027.2,020.2,8.5,0000.0,0004.21,0000.73,0000.40
2024-01-12 23:30:00,SystemResetWarning,0813.6,4.99,000.00,018.9,018.4,000.0,027.2,020.0,8.4,0000.0,0004.27,0000.78,0000.42
2024-01-12 23:31:00,SystemResetWarning,0813.6,5.00,000.00,018.9,018.2,000.0,027.2,020.0,8.4,0000.0,0004.29,0000.79,0000.42
2024-01-12 23:32:00,SystemResetWarning,0813.5,5.00,000.00,018.8,018.0,000.0,027.2,020.0,8.3,0000.0,0003.46,0000.88,0000.42
2024-01-12 23:33:00,SystemResetWarning,0813.5,5.00,000.00,018.8,017.9,000.0,027.2,020.0,8.3,0000.0,0003.25,0000.89,0000.42
2024-01-12 23:34:00,SystemResetWarning,0813.5,5.01,000.00,018.8,017.7,000.0,027.2,020.0,8.3,0000.0,0003.02,0000.86,0000.42
2024-01-12 23:35:00,SystemResetWarning,0813.6,5.00,000.00,018.8,017.6,000.0,027.3,020.0,8.5,0000.0,0003.04,0000.87,0000.42
2024-01-12 23:36:00,SystemResetWarning,0813.5,5.00,000.00,018.8,017.5,000.0,027.2,020.0,8.5,0000.0,0002.90,0000.83,0000.41
2024-01-12 23:37:00,SystemResetWarning,0813.5,5.00,000.00,018.8,017.5,000.0,027.2,020.0,8.6,0000.0,0002.26,0000.80,0000.41
2024-01-12 23:38:00,SystemResetWarning,0813.5,5.00,000.00,018.8,017.4,000.0,027.3,020.0,8.4,0000.0,0002.13,0000.85,0000.41
2024-01-12 23:39:00,SystemResetWarning,0813.5,5.00,000.00,018.7,017.4,000.0,027.3,020.0,8.3,0000.0,0002.78,0000.87,0000.41
2024-01-12 23:40:00,SystemResetWarning,0813.5,5.00,000.00,018.7,017.3,000.0,027.3,020.0,8.3,0000.0,0003.43,0000.84,0000.40
2024-01-12 23:41:00,SystemResetWarning,0813.5,5.00,000.00,018.7,017.2,000.0,027.3,020.0,8.3,0000.0,0004.10,0000.81,0000.39
2024-01-12 23:42:00,SystemResetWarning,0813.5,5.00,000.00,018.7,017.2,000.0,027.3,020.0,8.3,0000.0,0004.07,0000.80,0000.39
2024-01-12 23:43:00,SystemResetWarning,0813.6,5.00,000.00,018.7,017.2,000.0,027.3,020.0,8.3,0000.0,0003.65,0000.73,0000.40
2024-01-12 23:44:00,SystemResetWarning,0813.6,5.00,000.00,018.7,017.2,000.0,027.3,020.0,8.4,0000.0,0003.58,0000.75,0000.41
2024-01-12 23:45:00,SystemResetWarning,0813.6,5.00,000.00,018.7,017.1,000.0,027.3,020.0,8.3,0000.0,0003.58,0000.75,0000.41
2024-01-12 23:46:00,SystemResetWarning,0813.6,5.00,000.00,018.7,017.1,000.0,027.3,020.0,8.3,0000.0,0004.24,0000.78,0000.42
2024-01-12 23:47:00,SystemResetWarning,0813.6,5.00,000.00,018.7,017.0,000.0,027.3,020.0,8.3,0000.0,0004.63,0000.78,0000.42
2024-01-12 23:48:00,SystemResetWarning,0813.6,5.00,000.00,018.7,017.1,000.0,027.3,020.0,8.3,0000.0,0004.80,0000.85,0000.44
2024-01-12 23:49:00,SystemResetWarning,0813.6,5.00,000.00,018.7,017.7,000.0,027.2,020.4,8.3,0000.0,0004.74,0000.85,0000.45
2024-01-12 23:50:00,SystemResetWarning,0813.7,5.00,000.00,018.9,018.6,000.0,027.2,020.8,8.3,0000.0,0004.21,0000.82,0000.47
2024-01-12 23:51:00,SystemResetWarning,0813.6,4.99,000.00,019.0,018.8,000.0,027.2,020.6,8.2,0000.0,0003.56,0000.83,0000.48
2024-01-12 23:52:00,SystemResetWarning,0813.5,4.99,000.00,019.0,018.7,000.0,027.2,020.3,8.3,0000.0,0003.14,0000.84,0000.50
2024-01-12 23:53:00,SystemResetWarning,0813.5,4.99,000.00,018.9,018.6,000.0,027.2,020.1,8.3,0000.0,0004.16,0000.86,0000.50
2024-01-12 23:54:00,SystemResetWarning,0813.5,5.00,000.00,018.9,018.4,000.0,027.2,020.0,8.4,0000.0,0004.24,0000.90,0000.51
2024-01-12 23:55:00,SystemResetWarning,0813.5,5.00,000.00,018.9,018.2,000.0,027.2,020.0,8.5,0000.0,0004.26,0000.91,0000.53
2024-01-12 23:56:00,SystemResetWarning,0813.5,5.00,000.00,018.8,018.0,000.0,027.2,020.0,8.5,0000.0,0004.50,0000.92,0000.54
2024-01-12 23:57:00,SystemResetWarning,0813.5,5.00,000.00,018.8,017.9,000.0,027.2,020.0,8.5,0000.0,0004.09,0000.96,0000.55
2024-01-12 23:58:00,SystemResetWarning,0813.4,5.00,000.00,018.8,017.7,000.0,027.2,020.0,8.5,0000.0,0003.64,0000.97,0000.56
2024-01-12 23:59:00,SystemResetWarning,0813.4,5.00,000.00,018.8,017.6,000.0,027.2,020.0,8.6,0000.0,0004.91,0000.94,0000.56
